Regional Weather Roundup
Issued by NWS Wakefield, VA

Home | Current Version | Previous Version | Graphics & Text | Print | Product List | Glossary On
Versions: 1 2 3 4 5 6 7 8 9 10 11 12 13 14 15 16 17 18 19 20 21 22 23 24 25 26 27 28 29 30 31 32 33 34 35 36 37 38 39 40 41 42 43 44 45 46 47 48 49 50
692
ASUS41 KAKQ 031715
RWRAKQ

REGIONAL WEATHER ROUNDUP
NATIONAL WEATHER SERVICE WAKEFIELD VA
100 PM EDT TUE MAY 03 2016

Note: "fair" indicates few or no clouds below 12,000 feet with no
significant weather and/or obstructions to visibility. * = Denotes
station may not report precipitation (e.g., rain,snow,etc.),
thunder or fog.

VAZ042-051-052>054-056-031800-
NORTHERN VIRGINIA

CITY           SKY/WX    TMP DP  RH WIND       PRES   REMARKS
WASH NATIONAL  CLOUDY    69  60  73 NW9       29.79S
DULLES         PTSUNNY   68  56  65 NW5       29.80F
FORT BELVOIR   PTSUNNY   70  59  68 NW7       29.78F
QUANTICO       PTSUNNY   68  62  81 E6        29.79F
FREDERICKSBRG* CLOUDY    70  62  74 NE5       29.78S
STAFFORD*      CLOUDY    70  60  69 NE3       29.82F
WARRENTON      PTSUNNY   73  56  54 CALM      29.78F
CULPEPER*      FAIR      73  61  67 E5        29.79F
MANASSAS*      PTSUNNY   70  61  73 N10       29.79F
LEESBURG*      CLOUDY    68  61  77 N6        29.81F
WINCHESTER     CLOUDY    68  54  60 NE3       29.80F
FRONT ROYAL*   PTSUNNY   68  59  73 CALM      29.79F
LURAY*         FAIR      68  61  77 NE3       29.79F
$$

VAZ048-049-060>072-079>083-031800-
CENTRAL AND SOUTH CENTRAL VIRGINIA

CITY           SKY/WX    TMP DP  RH WIND       PRES   REMARKS
RICHMOND       PTSUNNY   71  62  73 S3        29.78F
CHESTERFIELD*  PTSUNNY   73  55  53 SW5       29.80F
PETERSBURG*    PTSUNNY   74  65  72 SW7       29.79F
HANOVER        PTSUNNY   73  60  63 CALM      29.79F
TAPPAHANNOCK*  CLOUDY    71  62  73 NE5       29.78F
QUINTON*       PTSUNNY   70  64  79 CALM      29.77F
CHARLOTTSVILLE PTSUNNY   75  58  55 VRB3      29.77F
GORDONSVILLE*  PTSUNNY   72  59  63 E3        29.77F
ORANGE*        FAIR      72  59  64 CALM      29.79F
LOUISA*        PTSUNNY   75  61  60 NW3       29.77F
BUMPASS*       CLOUDY    70  61  73 N5        29.77F
FARMVILLE*     PTSUNNY   75  58  55 S6        29.78F
CREWE*         PTSUNNY   71  64  77 W3        29.79F
FORT PICKETT*  NOT AVBL
CHASE CITY*    PTSUNNY   71  63  75 CALM      29.80F
CLARKSVILLE*   PTSUNNY   72  64  78 SW3       29.80F
SOUTH HILL*    CLOUDY    70  65  83 SW6       29.86F
LAWRENCEVILLE* CLOUDY    69  65  88 MISG      29.80F
EMPORIA*       CLOUDY    66  64  94 SW3       29.82F
$$

VAZ088>098-031800-
SOUTHEAST VIRGINIA

CITY           SKY/WX    TMP DP  RH WIND       PRES   REMARKS
NORFOLK        CLOUDY    71  63  75 SW14      29.79S
VIRGINIA BEACH CLOUDY    73  64  73 SW12      29.78F
NORFOLK NAVAL  PTSUNNY   73  65  75 SW12      29.80F
WEST POINT*    FAIR      71  63  76 CALM      29.79S
SALUDA*        FAIR      68  64  86 NW3       29.78S
NEWPORT NEWS   CLOUDY    69  65  86 SW9       29.79S
LANGLEY AFB    CLOUDY    70  66  88 SW15      29.78F
FORT EUSTIS    DRIZZLE   68  68 100 VRB3      29.77S
WILLIAMSBURG*  FAIR      72  66  83 W6        29.80S
HR EXEC AP*    CLOUDY    70  64  83 SW10      29.82S
FRANKLIN*      HVY RAIN  66  64  91 SW5       29.81F
US460-WAKEFLD  CLOUDY    70  64  81 SW6       29.79F
$$

VAZ020-022-025-037-045-031800-
WEST CENTRAL AND SOUTHWEST VIRGINIA

CITY           SKY/WX    TMP DP  RH WIND       PRES   REMARKS
STAUNTON*      PTSUNNY   71  59  64 S6        29.80F
WAYNESBORO*    PTSUNNY   70  56  61 CALM      29.80F
HOT SPRINGS VA FAIR      63  51  66 W14       29.86S
LYNCHBURG      PTSUNNY   72  58  61 SW9       29.81F
DANVILLE       FAIR      71  60  68 W5        29.81F
SOUTH BOSTON*  FAIR      72  62  70 W3        29.80F
MARTINSVILLE   PTSUNNY   70  59  68 CALM      29.84F
ROANOKE        PTSUNNY   72  58  61 VRB3      29.82F
BLACKSBURG     FAIR      68  56  66 CALM      29.87F
DUBLIN*        LGT RAIN  67  58  72 S6        29.85F
MARION*        PTSUNNY   67  56  68 W16G22    29.89F
HILLSVILLE*    CLOUDY    65  55  69 W6        29.86F
RICHLANDS*     DRIZZLE   57  55  95 NW7       29.89F
WISE*          CLOUDY    61  52  72 W9        29.91F
ABINGDON*      PTSUNNY   65  61  86 W10       29.88F
$$

MDZ021>025-VAZ099-100-031800-
SOUTHERN MARYLAND AND THE DELMARVA PENINSULA

CITY           SKY/WX    TMP DP  RH WIND       PRES   REMARKS
PATUXENT RIVER CLOUDY    69  62  78 VRB5      29.77F
BAY BRIDGE APT NOT AVBL
LEONARDTOWN    CLOUDY    70  59  68 N3        29.79F
DOVER          CLOUDY    59  59 100 N7        29.78S
GEORGETOWN     CLOUDY    68  61  78 N6        29.77F
EASTON         CLOUDY   N/A N/A N/A NW7       29.82F
CAMBRIDGE      CLOUDY    66  61  82 N7        29.77F
SALISBURY      CLOUDY    68  63  84 W7        29.77S
OCEAN CITY     CLOUDY    68  64  87 W7        29.77F
WALLOPS ISLAND LGT RAIN  68  64  87 W12       29.77F
ACCOMACK*      DRIZZLE   64  54  68 W5        29.78F
$$

NCZ012>017-030>032-031800-
NORTH CENTRAL AND EASTERN NORTH CAROLINA

CITY           SKY/WX    TMP DP  RH WIND       PRES   REMARKS
ROANOKE RAPIDS CLOUDY    68  64  88 SW8       29.80F
RALEIGH        PTSUNNY   73  66  78 SW9       29.82F
ELIZABETH CITY PTSUNNY   71  66  84 S12       29.81F
AHOSKIE*       CLOUDY    68  65  92 S3        29.81F
EDENTON*       CLOUDY    71  69  94 SW13G21   29.82F
CURRITUCK*     PTSUNNY   70  67  88 SW8       29.81F
KILL DEVIL HLS CLOUDY    69  68  96 CALM      29.81F
MANTEO         NOT AVBL
CAPE HATTERAS  LGT RAIN  68  65  90 W10G20    29.84F
TARBORO*       CLOUDY    72  67  82 S6        29.82F
GOLDSBORO      CLOUDY    70  70 100 S8        29.80F
WASHINGTON     CLOUDY    69  65  88 SW9       29.82F
GREENVILLE     CLOUDY    70  66  88 SW9       29.84F FOG
NEW BERN       LGT RAIN  68  65  90 S10       29.84F
WILMINGTON     CLOUDY    70  67  90 S3        29.85F
$$

VAZ048-031800-
ELSEWHERE

CITY           SKY/WX    TMP DP  RH WIND       PRES   REMARKS
HARRISBURG PA  CLOUDY    58  52  80 N5        29.81F
BALTIMORE      CLOUDY    62  58  86 NE6       29.79S FOG
ANNAPOLIS      CLOUDY    60  58  92 N8        29.80S
ANDREWS AFB    CLOUDY    69  59  70 N9        29.77F
PHILADELPHIA   CLOUDY    57  52  83 NE12      29.81F
HENDERSON NC     N/A     69  67  91 SW6       29.81F
GREENSBORO     CLOUDY    72  61  68 W6        29.82F
ROCKY MOUNT    CLOUDY    71  66  84 S10       29.81F
$$

VAZ100-031800-
MARINE

STATION/POSITION TIME  TEMP    WIND        PRES    WAVE   SWELL
                       AIR SEA DIR/SP/G            HT/PER HT/PER
                 (UTC) (F)     (DEG/KT/KT) (MB)    (FT/S) (FT/S)
BRANDYWINE LGT   1600   56      60/ 11/ 12 1008.7S
CAPE MAY NJ      1600   56 58   70/  6/  9 1008.2F
LEWES DE         1600   57 56  340/  9/ 10 1008.4F
15NM E FENWICK I 1650   56 53              1008.1F   3/ 6
OCEAN-CITY-INLET 1600   58 56  200/  4/  6 1007.7F
WACHAPREAGUE VA  1600   67 66  260/  5/  8 1008.3F
THOMAS POINT MD  1700   58 58   10/  7/  8 1010.1F
GOOSES REEF MD   1600   60 60   30/  8/  8 1009.9F   0
COVE POINT MD    1600   60      10/  2/  5 1009.3F
SOLOMONS ISLAND  1600   68 61  290/  4/  6   N/A
BISHOPS HEAD MD  1600   62 63  270/  4/  5 1008.1F
PINEY POINT MD   1600          320/  6/  6   N/A
POTOMAC MD       1600   63 61  330/  6/  6 1007.7F   0
CAMBRIDGE MD     1600   64 61  300/  6/  9 1008.0F
LEWISETTA VA     1600   67 62  350/  3/  5 1008.3F
RAPPAHANNOCK LGT 1600          220/  8/  9 1009.4F
STINGRAY PT      1600   65 62  290/  6/  6 1009.2F   0
YORK RVR RNG VA  1600   66     230/  8/  9 1008.2F
YORKTOWN VA      1600   67 63  230/  9/ 12 1008.5F
JAMESTOWN VA     1600   67 68  230/  6/  8   N/A
DOMINION TERM VA 1600   67     240/ 10/ 12 1008.9F
KIPTOPEKE VA     1600      62  220/  5/  7   N/A
CHES BAY BRIDGE  1600   66 62  210/ 13/ 15 1008.6F
CAPE HENRY VA    1600   68     220/  9/ 13   N/A
CHESAPEAKE LGHT  1600   64     220/ 13/ 14 1009.9F
WILLOUBY STN VA  1600   66     240/ 12/ 13 1009.8F
CAPE HENRY BUOY  1612      60                N/A     3/ 6
CAPE CHARLES BUO 1626      58                N/A     2/ 9   2/ 9
OFFSHORE WE BUOY 1621      57                N/A     3/ 9   2/ 9
64NM E OF VA BCH 1650   57 54  220/  6/  8 1009.6F   3/ 6   3/ 6
DUCK PIER NC     1600   67 66  220/ 10/ 12 1010.1R
44100 DUCK FRF   1624      61                N/A     3/ 6
44056 DUCK FRF   1611      58                N/A     2/ 6
OREGON INLET NC  1600   67 71  210/ 11/ 12 1011.3R
HATTERAS NC      1600   67 69  260/ 19/ 22 1011.1F
DIAMOND SHLS NC  1650   69 71  280/ 16/ 19 1010.9F   5/ 7   2/15
CAPE LOOKOUT NC  1700   66     220/  6/  8 1011.1F
$$




USA.gov is the U.S. government's official web portal to all federal, state and local government web resources and services.